Regional Weather Roundup
Issued by NWS

Home | Current Version | Previous Version | Graphics & Text | Print | Product List | Glossary Off
Versions: 1 2 3 4 5 6 7 8 9 10 11 12 13 14 15 16 17 18 19 20 21 22 23 24 25 26 27 28 29 30 31 32 33 34 35 36 37 38 39 40 41 42 43 44 45 46 47 48 49 50

000
ASUS43 KLSX 260307
RWRMO

WEATHER SUMMARY FOR MISSOURI
NATIONAL WEATHER SERVICE SPRINGFIELD MO
1000 PM CDT THU AUG 25 2016

NOTE: "FAIR" INDICATES FEW OR NO CLOUDS BELOW 12,000 FEET WITH NO
       SIGNIFICANT WEATHER AND/OR OBSTRUCTIONS TO VISIBILITY.
       CURRENT SKY AND/OR WEATHER CONDITIONS ARE NOT AVAILABLE FOR
       CHILLICOTHE AND FARMINGTON.

MOZ001>031-035>038-043-044-053-054-260400-
...NORTHERN AND WESTERN MISSOURI...

CITY           SKY/WX    TMP DP  RH WIND       PRES   REMARKS
KANSAS CTY INT MOCLDY    72  66  81 NE9       30.10R
KANSAS C DTWN  CLOUDY    75  69  81 NE8       30.08R
LEE`S SUMMIT   CLOUDY    74  70  87 NE9       30.09R
ST JOSEPH      CLEAR     67  63  87 N7        30.11R
KIRKSVILLE     CLOUDY    70  64  81 NE6       30.11R

$$
MOZ066>068-077>081-088>096-101>105-260400-
...SOUTHWEST MISSOURI...

CITY           SKY/WX    TMP DP  RH WIND       PRES   REMARKS
SPRINGFIELD    CLOUDY    77  65  66 NE7       30.09F
JOPLIN         CLOUDY    71  65  81 E3        30.04R
BRANSON        CLOUDY    73  72  94 CALM      30.11R

$$
MOZ032>034-039>042-045>050-055>058-069>072-260400-
...CENTRAL MISSOURI...

CITY           SKY/WX    TMP DP  RH WIND       PRES   REMARKS
COLUMBIA       CLOUDY    76  73  91 N7        30.07S
JEFFERSON CITY CLOUDY    78  72  81 CALM      30.05S
ROLLA          CLOUDY    74  71  91 CALM      30.06S
SEDALIA        CLOUDY    79  73  82 NE7       30.09R
WHITEMAN AFB   MOCLDY    76  76 100 E8        30.06R
OSAGE BEACH    CLOUDY    71  69  93 CALM      30.06S

$$
MOZ051-052-059>065-260400-
...EAST CENTRAL MISSOURI...

CITY           SKY/WX    TMP DP  RH WIND       PRES   REMARKS
ST LOUIS INTL  CLOUDY    86  72  62 CALM      30.04S HX  92
SPIRIT OF STL  CLOUDY    80  76  87 CALM      30.02S
ST CHARLES     CLOUDY    78  76  93 E5        30.02F

$$
MOZ072>076-082>087-097>100-106>115-260400-
...SOUTH CENTRAL AND SOUTHEAST MISSOURI...

CITY           SKY/WX    TMP DP  RH WIND       PRES   REMARKS
CAPE GIRARDEAU CLEAR     77  72  84 N3        30.05R
FARMINGTON     CLOUDY    78  73  84 CALM      30.09
POPLAR BLUFF   PTCLDY    80  76  87 SE3       30.06R
WEST PLAINS    CLOUDY    79  69  71 S5        30.11S

$$


USA.gov is the U.S. government's official web portal to all federal, state and local government web resources and services.